User: anonymous   Login
Location: Marsån
(66.4167°N, 22.2833°E)
Time: 00:27:24
(UTC+00:00)
Language:

ATLAS 2AS CENTAUR R/B - Orbit

View from above orbital plane
View from above orbital plane
View from above satellite
View from above satellite

Ground track
Ground track

The orbit data is extracted from the following two-line orbital elements,

1 28096U 03054B   24144.41822454 -.00000016  00000-0  12393-3 0  9991
2 28096  63.6764 140.5948 0120055 170.8553 189.4700 13.40972147  1202
Epoch (UTC): 23 May 2024 10:02:14
Eccentricity: 0.0120055
inclination: 63.6764°
perigee height: 1016 km
apogee height: 1195 km
right ascension of ascending node: 140.5948°
argument of perigee: 170.8553°
revolutions per day: 13.40972147
mean anomaly at epoch: 189.4700°
orbit number at epoch: 120

The dashed part of the orbit path shows where the satellite is in the earth's shadow,  

DLR